Location: Chacón
(10.5789°N, 66.9317°W)
Time: 23:59:01
(UTC+00:00)

Sakura Rocket - Pass Details

Date: 12 August 2024
Orbit: 475 x 1710 km, 28.7° (Epoch: 09 September)

Event Time Altitude Azimuth Distance (km) Brightness Sun altitude
Rises 23:51:24 0° 230° (SW) 2,884 6.9 -15.9°
Reaches altitude 10° 23:54:01 10° 222° (SW) 1,841 5.8 -16.5°
Maximum altitude 23:57:53 41° 151° (SSE) 731 3.1 -17.4°
Enters shadow 23:58:16 39° 134° (SE) 744 3.0 -17.5°
